Погода в Смоленске

Погода в Смоленске : погода сейчас, прогноз погоды и архив. Всё, что Вы хотите узнать о погоде в Смоленске!

Хотите узнать прогноз погоды в Смоленске? Тогда Вам сюда: Погода в Смоленске

Поиск расширенной информации на нашем сайте:

Другие новости

Новости СМИ2

Главная страница сайта

Новости сайта

02.10.2013

Напоминаем, что на нашем новом сайте вы можете получить высокодетализированные прогнозы погоды по пунктам России, СНГ и мира (включающие важные для авиации метеовеличины, такие как направление и скорость ветра, видимость, явления погоды, количество и форма облачности, нижняя и верхняя граница облачности), а также ознакомиться с разнообразными материалами по авиационной метеорологии и подборкой полезных ссылок на эту тему.

Сайт Метеоцентр.Азия посвящён разработке технологий оптимизации авиаметеорологического обслуживания, включая проектирование и перспективное создание нескольких автоматизированных авиаметеорологических систем:
- система выпуска высокодетальных прогностических карт явлений погоды для нижнего воздушного пространства по России и ближнему зарубежью;
- система верификации прогнозов TAF (выпускаемых синоптиками официальных АМСГ РФ и ближнего зарубежья) и AUTOTAF (выпускаемых сайтом Метеоцентр.Азия) - выявление ошибок, онлайн-сопоставление с фактической погодой METAR, автоматическое внесение коррективов в прогнозы при резком отклонении фактической погоды от прогноза, подсчёт оправдываемости прогнозов по элементам и в целом;
- система обработки, анализа и отображения авиаметеорологической информации для применения провайдерами метеорологической информации.

Рекомендуем: белый кот

Погода в Смоленске - сегодня

Время (UTC), дата Ветер
(°,м/с) 
Видим.   Явления Облачность Т
(°С)
Тd
(°С)
f(%) Тe
(°С)
Pmin
(гПа)
dP
(гПа)
Po
(мм)
O2
(г/м3)
Тmin Tmax R s Состояние
почвы
18 23.03.17 270 (З) 10 км    ясно 
+3.5 -3.3 61 +4  1025.2  0.6  747  297    +10.6       
21 23.03.17 220 (ЮЗ) 10 км    ясно 
+0.4 -3.2 77 +1  1025.7  0.1  747  301           
00 24.03.17 тихо ()   10 км    5/0 верхняя 
[Ci fib]
+0.4 -3.2 77 1024.7  -1  746  300           
03 24.03.17 тихо ()   10 км    9/0 верхняя 
[Ci fib]
-0.1 -2.8 82 -0  1022.7  -2  744  300  -0.9         
06 24.03.17 тихо ()   10 км    10/10 300 м 
[St]
+1.3 -2.1 78 +1  1021.4  -1.1  744  298  -0.9         
09 24.03.17 310 (СЗ) 10 км    10/4 600 м средняя 
[Sc|Ac und]
+7.3 -1.7 53 +7  1018.9  -1.8  742  291           
12 24.03.17 350 (С) 4000 м  слаб. ливневой дождь  10/10 600 м кучево-дожд. 
[Cb cap]
+4.1 +1.8 85 +3  1018.3  -1  742  294           
15 24.03.17 340 (С) 20000 м  {ливн. осадки}  3/1 600 м средняя 
[Sc diur, vesp|Ac trans]
+5.2 -1.4 62 +4  1017.5  -0.6  741  293      0.4     
18 24.03.17 340 (С) 5-10{11}  10 км  {ливн. осадки}  ясно 
+2.7 -5.8 53 1019.6  1.8  742  297    +8  0.4     
21 24.03.17 310 (СЗ) 2{10}  10 км    ясно 
-0.4 -6.8 62 -1  1021  743  301           
00 25.03.17 320 (СЗ) 10 км    8/0 средняя 
[Ac trans]
-1.1 -8.3 58 -3  1021.8  0.7  744  302           
03 25.03.17 300 (СЗ) 10 км    ясно 
-3.5 -7.8 72 -3  1022  744  304  -3.5         
06 25.03.17 300 (СЗ) 10 км    ясно 
-1 -6.7 65 -2  1021.5  -0.2  743  301  -4.4         
09 25.03.17 280 (З) 20000 м    5/3 1500 м верхняя 
[Sc|Ci fib]
+3 -8.2 44 +2  1019.6  -1.5  742  297           
12 25.03.17 260 (З) 20000 м    8/4 600 м верхняя 
[Sc|Ci fib]
+3.7 -8.8 40 +3  1017.2  -2.3  741  295           
15 25.03.17 300 (СЗ) 10 км    10/5 300 м верхняя 
[Sc|Ci fib]
+2.8 -10.8 36 +4  1015.5  -1.7  739  296           
18 25.03.17 280 (З) 10 км    10/10 300 м 
[Sc]
-0.8 -5.2 72 1015.8  -0.1  739  299    +4       
21 25.03.17 тихо ()   10 км    8/0 верхняя 
[Ci fib]
-2.1 -4.9 81 -2  1016.7  0.7  740  301           
00 26.03.17 300 (СЗ) 10 км    10/10 600 м 
[Sc]
-1.7 -4 84 -1  1017.5  0.9  741  301           
03 26.03.17 350 (С) 10 км    10/10 300 м 
[Sc]
-0.7 -6.3 66 1018.2  0.8  741  300  -2.4         
06 26.03.17 320 (СЗ) 10 км    10/0 средняя 
[Ac und]
+1.3 -5.4 61 +2  1019.4  1.4  742  298  -2.4         
09 26.03.17 260 (З) 10 км    10/8 300 м средняя 
[Sc|Ac trans]
+3.4 -6.7 48 +3  1019.5  1.4  742  296           
12 26.03.17 280 (З) 10 км    9/8 300 м средняя 
[Sc|Ac trans]
+4.6 -5.1 49 +4  1018.3  -1  742  294           
15 26.03.17 270 (З) 10 км    10/10 600 м 
[Sc]
+3.4 -4.2 57 +2  1015.8  -2.5  740  295           
18 26.03.17 270 (З) 10 км    10/10 300 м 
[Sc]
+2.6 -1.7 73 +1  1013.1  -2.7  738  295    +4.7       
Время (UTC), дата Ветер
(°,м/с) 
Видим.   Явления Облачность Т
(°С)
Тd
(°С)
f(%) Тe
(°С)
Pmin
(гПа)
dP
(гПа)
Po
(мм)
O2
(г/м3)
Тmin Tmax R s Состояние
почвы

Для получения пояснительной информации подведите курсор к названию столбца.

ПОГОДА в Смоленске - архив

Всё, что Вы хотите узнать о погоде в Смоленске - удобно и подробно!

Выберите нужную дату (начиная с 1 января 2015* года) и нажмите кнопку "Найти".
Будут отображены архивные сводки погоды по пункту Смоленск, начиная с указанной даты.


Отображать данные в формате CSV (для использования в таблицах Excel)


Внимание! Наш архив погоды предназначен исключительно для личного некоммерческого использования в познавательных целях. Если Вам необходимы официальные справки о состоянии погоды (для производственных, юридических, коммерческих и т.п. целей), обращайтесь в органы Росгидромета.

*Примечание: данная дата относится к архиву по метеостанциям СССР (Россия, СНГ, Балтия).
Архив по метеостанциям Зарубежной Европы и Азии (кроме Китая) хранится 10 дней, по другим регионам земного шара (Китай, Африка, Америка, Австралия, Океания) - 1 день.

Смоленск - район местоположения метеостанции


Название, широта, долгота, высота метеостанции:
Смоленск 54.8°ш. 32.1°д. 239 м над ур. моря [Российская Федерация]

Дополнительная информация

В oтличие oт бoльшинства пoгoдных сайтoв мы публикуем пoдрoбную метеoинфoрмацию в детальнoм прoфессиoнальнoм фoрмате.

Характеристики температуры и влажнoсти вoздуха измеряются на высoте 2 м в тени вдали oт зданий и деревьев.
Скoрoсть ветра измеряется на высoте 10 м (на урoвне рoста челoвека скoрoсть ветра ниже в 1.5-2 раза). Если метеoстанция нахoдится в гoрoде или в лесу, тo скoрoсть ветра занижена на 2-4 м/с пo сравнению с oткрытым местoм. Скoрoсть ветра над акватoриями крупных рек и oзёр, а также на вершинах хoлмoв на 2-5 м/с выше, чем в oбычных услoвиях.
Атмoсфернoе давление в разных тoчках местнoсти мoжет значительнo oтличаться oт давления на метеoстанции, в зависимoсти oт услoвий рельефа (при пoдъёме на 10 м давление пoнижается примернo на 1 мм рт.ст.).